Location: Unspecified
(0.0000°N, 0.0000°E)
Time: 14:14:38
(UTC+01:00)

Cosmos 2237 Rocket - Visible Passes

Search period start: 21 January 2017 00:00
Search period end: 31 January 2017 00:00
Orbit: 835 x 850 km, 71.0° (Epoch: 20 January)

Date Brightness Start Highest point End Pass type
(mag) Time Alt. Az. Time Alt. Az. Time Alt. Az.
21 Jan 2.7 05:37:07 14° N 05:42:01 59° ENE 05:47:36 10° SSE visible
22 Jan 2.8 05:23:46 23° N 05:27:11 55° ENE 05:32:44 10° SSE visible
23 Jan 2.9 05:10:24 36° NNE 05:12:21 51° ENE 05:17:51 10° SSE visible
24 Jan 2.9 04:56:58 46° ENE 04:57:31 48° ENE 05:02:58 10° SSE visible
24 Jan 4.0 06:39:42 10° W 06:41:19 11° WSW 06:42:57 10° WSW visible
25 Jan 3.2 04:43:29 42° E 04:43:29 42° E 04:48:05 10° SE visible
25 Jan 4.0 06:25:22 12° W 06:26:29 12° WSW 06:28:39 10° SW visible
26 Jan 3.8 04:29:56 30° ESE 04:29:56 30° ESE 04:33:11 10° SE visible
26 Jan 4.0 06:11:49 13° WSW 06:11:49 13° WSW 06:14:13 10° SW visible
27 Jan 4.4 04:16:18 21° SE 04:16:18 21° SE 04:18:18 10° SE visible
27 Jan 4.1 05:58:11 13° WSW 05:58:11 13° WSW 05:59:43 10° SW visible
28 Jan 4.8 04:02:37 14° SE 04:02:37 14° SE 04:03:22 10° SE visible
28 Jan 4.3 05:44:30 12° SW 05:44:30 12° SW 05:45:10 10° SW visible
